This is the latest recevied weather packets stored in our database for station/object WX7EM. If no packets are shown the sender has not sent any weather packets the latest 1 day(s).
| Time | Temp. | Humidity | Pressure | Rain* | Wind** | Luminosity | Snow |
|---|---|---|---|---|---|---|---|
| 1777987834 | 11.67° C | 92% | 1015 hPa | 0 mm | 0 m/s | 12 W/m² | - |
| 1777987531 | 11.67° C | 92% | 1014.8 hPa | 0 mm | 0.89 m/s, 140° | 10 W/m² | - |
| 1777987229 | 11.67° C | 92% | 1014.7 hPa | 0 mm | 0.45 m/s, 139° | 6 W/m² | - |
| 1777986925 | 11.67° C | 92% | 1014.6 hPa | 0 mm | 0.45 m/s, 157° | 5 W/m² | - |
| 1777986624 | 11.67° C | 92% | 1014.7 hPa | 0 mm | 0.45 m/s, 155° | 3 W/m² | - |
| 1777986321 | 11.67° C | 92% | 1014.6 hPa | 0 mm | 0 m/s | 2 W/m² | - |
| 1777986020 | 11.67° C | 92% | 1014.8 hPa | 0 mm | 0.45 m/s, 169° | 1 W/m² | - |
| 1777985716 | 11.67° C | 92% | 1014.7 hPa | 0 mm | 0 m/s | 1 W/m² | - |
| 1777985412 | 11.67° C | 92% | 1014.8 hPa | 0 mm | 0.45 m/s, 202° | 0 W/m² | - |
| 1777985109 | 11.67° C | 92% | 1014.6 hPa | 0 mm | 0.45 m/s, 137° | 0 W/m² | - |
| 1777984805 | 11.67° C | 93% | 1014.4 hPa | 0 mm | 0.45 m/s, 174° | 0 W/m² | - |
| 1777984502 | 11.67° C | 93% | 1014.4 hPa | 0 mm | 0 m/s | 0 W/m² | - |
| 1777984198 | 11.67° C | 93% | 1014.5 hPa | 0 mm | 0.45 m/s, 140° | 0 W/m² | - |
| 1777983895 | 11.67° C | 93% | 1014.4 hPa | 0 mm | 0 m/s | 0 W/m² | - |
| 1777983592 | 11.67° C | 93% | 1014.7 hPa | 0 mm | 0 m/s | 0 W/m² | - |
| 1777983289 | 11.67° C | 93% | 1014.4 hPa | 0 mm | 0.45 m/s, 148° | 0 W/m² | - |
| 1777982985 | 11.67° C | 94% | 1014.6 hPa | 0 mm | 0 m/s | 0 W/m² | - |
| 1777982681 | 11.67° C | 94% | 1014.3 hPa | 0 mm | 0.45 m/s, 158° | 0 W/m² | - |
| 1777982381 | 11.67° C | 94% | 1014.3 hPa | 0 mm | 0 m/s | 0 W/m² | - |
| 1777982077 | 11.67° C | 94% | 1014.3 hPa | 0 mm | 0.45 m/s, 140° | 0 W/m² | - |
| 1777981775 | 11.67° C | 93% | 1014.3 hPa | 0 mm | 0.89 m/s, 177° | 0 W/m² | - |
| 1777981471 | 11.67° C | 93% | 1014.2 hPa | 0 mm | 0.45 m/s, 179° | 0 W/m² | - |
| 1777981168 | 11.67° C | 93% | 1014.3 hPa | 0 mm | 0.45 m/s, 145° | 0 W/m² | - |
| 1777980864 | 11.67° C | 92% | 1014.4 hPa | 0 mm | 0 m/s | 0 W/m² | - |
| 1777980560 | 12.22° C | 91% | 1014.3 hPa | 0 mm | 0.45 m/s, 120° | 0 W/m² | - |
* Rain latest hour (hover to see other rain measurements)
** Current wind speed in m/s (hover to see current wind gust speed)